Probability
0 0 0 0 0 0 0 0 0 0 0 0 0 0 0 0 0 0 0 0 0 0 0 0 0 0 0 0 0 0 0 0 0 0 0 0 0 0 0 0 0 0 0 0
0 0 0 0 0 0 0 0 0 0 0 0 0 0 0 0 0 0 0 0 0 0 0 0 0 0 0 0 0 0 0 0 0 0 0 0 0 0 0 0 0 0 0 0
0 0 0 0 0 0 0 0 0 0 0 0 0 0 0 0 0 0 0 0 0 0 0 0 0 0 0 0 0 0 0 0 0 0 0 0 0 0 0 0 0 0 0 0
0 0 0 0 0 0 0 0 0 0 0 0 0 0 0 0 0 0 0 0 0 0 0 0 0 0 0 0 0 0 0 0 0 0 0 0 0 0 0 0 0 0 0 0
0 0 0 0 0 0 0 0 0 0 0 0 0 0 0 0 0 0 0 0 0 0 0 0 0 0 0 0 0 0 0 0 0 0 0 0 0 0 0 0 0 0 0 0
0 0 0 0 0 0 0 0 0 0 0 0 0 0 0 0 0 0 0 0 0 0 0 0 0 0 0 0 0 0 0 0 0 0 0 0 0 0 0 0 0 0 0 0
0 0 0 0 0 0 0 0 0 0 0 0 0 0 0 0 0 0 0 0 0 0 0 0 0 0 0 0 0 0 0 0 0 0 0 0 0 0 0 0 0 0 0 0
0 0 0 0 0 0 0 0 0 0 0 0 0 0 0 0 0 0 0 0 0 0 0 0 0 0 0 0 0 0 0 0 0 0 0 0 0 0 0 0 0 0 0 0
0 0 0 0 0 0 0 0 0 0 0 0 0 0 0 0 0 0 0 0 0 0 0 0 0 0 0 0 0 0 0 0 0 0 0 0 0 0 0 0 0 0 0 0
0 0 0 0 0 0 0 0 0 0 0 0 0 0 0 0 0 0 0 0 0 0 0 0 0 0 0 0 0 0 0 0 0 0 0 0 0 0 0 0 0 0 0 0
0 0 0 0 0 0 0 0 0 0 0 0 0 0 0 0 0 0 0 0 0 0 0 0 0 0 0 0 0 0 0 0 0 0 0 0 0 0 0 0 0 0 0 0
0 0 0 0 0 0 0 0 0 0 0 0 0 0 0 0 0 0 0 0 0 0 0 0 0 0 0 0 0 0 0 0 0 0 0 0 0 0 0 0 0 0 0 0
0 0 0 0 0 0 0 0 0 0 0 0 0 0 0 0 0 0 0 0 0 0 0 0 0 0 0 0 0 0 0 0 0 0 0 0 0 0 0 0 0 0 0 0
0 0 0 0 0 0 0 0 0 0 0 0 0 0 0 0 0 0 0 0 0 0 0 0 0 0 0 0 0 0 0 0 0 0 0 0 0 0 0 0 0 0 0 0
0 0 0 0 0 0 0 0 0 0 0 0 0 0 0 0 0 0 0 0 0 0 0 0 0 0 0 0 0 0 0 0 0 0 0 0 0 0 0 0 0 0 0 0
0 0 0 0 0 0 0 0 0 0 0 0 0 0 0 0 0 0 0 0 0 0 0 0 0 0 0 0 0 0 0 0 0 0 0 0 0 0 0 0 0 0 0 0
0 0 0 0 0 0 0 0 0 0 0 0 0 0 0 0 0 0 0 0 0 0 0 0 0 0 0 0 0 0 0 0 0 0 0 0 0 0 0 0 0 0 0 0
0 0 0 0 0 0 0 0 0 0 0 0 0 0 0 0 0 0 0 0 0 0 0 0 0 0 0 0 0 0 0 0 0 0 0 0 0 0 0 0 0 0 0 0
0 0 0 0 0 0 0 0 0 0 0 0 0 0 0 0 0 0 0 0 0 0 0 0 0 0 0 0 0 0 0 0 0 0 0 0 0 0 0 0 0 0 0 0
0 0 0 0 0 0 0 0 0 0 0 0 0 0 0 0 0 0 0 0 0 0 0 0 0 0 0 0 0 0 0 0 0 0 0 0 0 0 0 0 0 0 0 0
0 0 0 0 0 0 0 0 0 0 0 0 0 0 0 0 0 0 0 0 0 0 0 0 0 0 0 0 0 0 0 0 0 0 0 0 0 0 0 0 0 0 0 0
0 0 0 0 0 0 0 0 0 0 0 0 0 0 0 0 0 0 0 0 0 0 0 0 0 0 0 0 0 0 0 0 0 0 0 0 0 0 0 0 0 0 0 0
0 0 0 0 0 0 0 0 0 0 0 0 0 0 0 0 0 0 0 0 0 0 0 0 0 0 0 0 0 0 0 0 0 0 0 0 0 0 0 0 0 0 0 0
0 0 0 0 0 0 0 0 0 0 0 0 0 0 0 0 0 0 0 0 0 0 0 0 0 0 0 0 0 0 0 0 0 0 0 0 0 0 0 0 0 0 0 0
0 0 0 0 0 0 0 0 0 0 0 0 0 0 0 0 0 0 0 0 0 0 0 0 0 0 0 0 0 0 0 0 0 0 0 0 0 0 0 0 0 0 0 0
0 0 0 0 0 0 0 0 0 0 0 0 0 0 0 0 0 0 0 0 0 0 0 0 0 0 0 0 0 0 0 0 0 0 0 0 0 0 0 0 0 0 0 0
0 0 0 0 0 0 0 0 0 0 0 0 0 0 0 0 0 0 0 0 0 0 0 0 0 0 0 0 0 0 0 0 0 0 0 0 0 0 0 0 0 0 0 0
Height
5756 5759 5761 5762 5764 5766 5768 5769 5770 5769 5766 5765 5764 5761 5759 5755 5752 5748 5744 5740 5735 5730 5724 5718 5710 5702 5692 5682 5672 5661 5651 5642 5635 5629 5625 5621 5618 5614 5610 5605 5600 5594 5588 5583
5746 5748 5751 5753 5754 5756 5758 5760 5761 5760 5758 5757 5756 5753 5750 5747 5743 5740 5736 5731 5726 5720 5714 5707 5699 5690 5680 5670 5660 5651 5643 5636 5630 5625 5622 5618 5614 5610 5605 5600 5594 5589 5583 5578
5734 5738 5741 5742 5744 5747 5749 5750 5751 5750 5750 5749 5747 5745 5742 5739 5736 5732 5727 5722 5717 5711 5704 5697 5688 5679 5669 5660 5652 5645 5639 5633 5628 5624 5620 5615 5611 5606 5600 5595 5589 5583 5577 5572
5722 5728 5730 5731 5736 5738 5740 5740 5741 5741 5741 5740 5738 5736 5733 5731 5727 5723 5719 5714 5708 5701 5694 5686 5678 5669 5661 5654 5649 5643 5638 5633 5628 5623 5618 5613 5608 5602 5596 5589 5582 5576 5570 5565
5713 5717 5718 5724 5727 5729 5730 5730 5732 5732 5732 5731 5729 5727 5724 5722 5719 5715 5710 5705 5699 5692 5684 5677 5669 5662 5657 5652 5648 5643 5638 5633 5628 5622 5617 5610 5604 5597 5590 5583 5576 5569 5563 5557
5705 5708 5710 5714 5718 5718 5720 5721 5723 5723 5722 5722 5720 5718 5715 5714 5710 5706 5701 5695 5689 5682 5676 5669 5664 5659 5656 5652 5648 5643 5638 5633 5627 5621 5614 5608 5600 5593 5585 5577 5569 5562 5556 5550
5696 5698 5699 5705 5707 5709 5711 5713 5713 5713 5713 5712 5711 5710 5708 5705 5702 5697 5692 5686 5680 5674 5669 5664 5661 5658 5656 5652 5648 5644 5638 5632 5626 5620 5612 5605 5596 5588 5579 5570 5562 5554 5548 5542
5686 5689 5693 5695 5697 5699 5701 5703 5703 5704 5704 5704 5703 5703 5701 5698 5693 5689 5683 5678 5672 5668 5664 5662 5660 5658 5656 5653 5648 5643 5638 5632 5626 5619 5611 5602 5593 5583 5574 5565 5557 5549 5543 5537
5678 5682 5685 5686 5688 5690 5692 5694 5695 5695 5696 5697 5696 5695 5693 5689 5685 5680 5675 5671 5667 5664 5663 5662 5661 5659 5657 5653 5648 5644 5638 5632 5625 5617 5609 5600 5590 5581 5572 5563 5554 5547 5540 5534
5669 5672 5675 5678 5680 5682 5684 5686 5687 5689 5690 5690 5689 5688 5685 5681 5677 5673 5669 5666 5664 5663 5663 5663 5662 5660 5657 5653 5649 5644 5638 5631 5624 5616 5607 5598 5589 5579 5570 5561 5553 5545 5538 5532
5661 5664 5667 5670 5673 5675 5677 5679 5681 5683 5683 5683 5682 5680 5678 5674 5671 5667 5665 5664 5664 5664 5664 5664 5663 5660 5657 5654 5650 5644 5638 5631 5624 5615 5607 5598 5588 5579 5570 5561 5552 5545 5537 5530
5654 5658 5661 5663 5666 5668 5671 5673 5675 5676 5677 5676 5675 5673 5671 5668 5665 5664 5663 5663 5664 5665 5666 5665 5664 5661 5658 5655 5651 5645 5639 5631 5623 5615 5607 5598 5589 5579 5569 5560 5552 5543 5535 5528
5647 5649 5653 5656 5659 5662 5665 5668 5669 5670 5670 5670 5668 5667 5665 5663 5662 5662 5663 5664 5666 5667 5667 5666 5665 5663 5660 5656 5651 5646 5639 5632 5624 5616 5607 5598 5589 5579 5569 5560 5551 5542 5534 5526
5639 5643 5646 5650 5653 5657 5660 5662 5663 5663 5663 5663 5662 5661 5660 5660 5661 5662 5664 5666 5668 5669 5668 5667 5666 5664 5661 5657 5652 5646 5639 5633 5625 5617 5608 5599 5590 5579 5569 5559 5549 5541 5532 5525
5633 5637 5642 5645 5649 5651 5653 5655 5656 5656 5657 5657 5656 5656 5657 5659 5660 5663 5665 5668 5669 5670 5670 5669 5668 5666 5663 5658 5653 5647 5641 5634 5626 5618 5610 5600 5591 5580 5570 5560 5550 5541 5533 5525
5630 5633 5637 5640 5643 5645 5647 5648 5649 5650 5651 5651 5652 5653 5656 5658 5661 5664 5667 5670 5671 5672 5672 5671 5670 5667 5664 5659 5654 5648 5642 5635 5628 5620 5611 5601 5592 5582 5572 5562 5552 5543 5534 5526
5627 5630 5633 5635 5637 5639 5640 5642 5643 5644 5645 5647 5649 5652 5655 5658 5662 5666 5669 5671 5673 5673 5673 5673 5671 5669 5665 5660 5656 5650 5644 5637 5629 5621 5612 5603 5594 5584 5574 5564 5554 5544 5536 5527
5622 5625 5627 5629 5631 5632 5634 5635 5636 5638 5640 5643 5646 5650 5655 5659 5664 5667 5670 5673 5674 5675 5675 5674 5673 5670 5666 5662 5658 5652 5646 5639 5631 5623 5614 5605 5596 5587 5577 5567 5557 5547 5538 5530
5617 5619 5621 5623 5625 5626 5628 5629 5631 5634 5637 5641 5645 5650 5655 5660 5665 5669 5672 5674 5676 5677 5677 5676 5674 5671 5668 5665 5660 5655 5648 5641 5633 5625 5616 5608 5599 5590 5580 5570 5560 5551 5541 5533
5612 5614 5616 5618 5619 5621 5623 5625 5628 5631 5634 5639 5645 5651 5656 5661 5666 5670 5674 5676 5678 5678 5678 5678 5676 5674 5671 5668 5663 5657 5651 5644 5636 5628 5619 5611 5602 5594 5585 5575 5566 5556 5547 5538
5607 5609 5611 5613 5615 5617 5619 5622 5625 5629 5633 5639 5645 5651 5657 5662 5667 5672 5676 5678 5679 5680 5680 5680 5678 5677 5674 5670 5665 5659 5653 5646 5639 5631 5623 5614 5606 5598 5590 5581 5572 5563 5554 5545
5602 5604 5607 5609 5611 5613 5616 5619 5623 5627 5633 5639 5646 5652 5659 5664 5669 5674 5677 5680 5681 5682 5682 5682 5681 5679 5677 5673 5668 5662 5656 5649 5642 5634 5626 5618 5611 5603 5595 5587 5579 5570 5562 5553
5597 5599 5602 5604 5607 5610 5613 5617 5621 5627 5633 5640 5647 5654 5660 5666 5671 5676 5679 5682 5683 5684 5685 5684 5683 5682 5679 5675 5670 5664 5658 5652 5645 5638 5630 5623 5616 5609 5601 5594 5586 5578 5570 5563
5592 5594 5597 5600 5603 5606 5610 5615 5620 5627 5634 5642 5649 5656 5662 5668 5674 5678 5681 5684 5685 5686 5687 5687 5686 5685 5682 5677 5672 5666 5661 5655 5648 5641 5634 5628 5621 5614 5608 5601 5594 5587 5580 5573
5587 5589 5592 5595 5599 5603 5608 5613 5620 5628 5636 5643 5651 5658 5664 5670 5675 5680 5683 5686 5687 5689 5689 5689 5688 5687 5684 5679 5674 5669 5663 5658 5652 5645 5639 5633 5626 5620 5614 5607 5601 5594 5588 5582
5583 5585 5588 5591 5596 5601 5606 5613 5621 5629 5638 5645 5653 5660 5666 5672 5677 5682 5685 5687 5689 5691 5692 5692 5690 5688 5685 5681 5677 5672 5667 5661 5655 5650 5644 5638 5631 5625 5620 5614 5608 5602 5596 5589
5578 5581 5585 5589 5594 5600 5606 5614 5623 5632 5640 5648 5655 5662 5669 5674 5679 5684 5687 5689 5691 5693 5694 5694 5692 5690 5687 5684 5680 5675 5670 5665 5660 5654 5648 5642 5637 5631 5625 5620 5614 5608 5603 5597
Wind_Speed
43 39 39 38 36 34 33 33 34 37 39 39 40 41 41 41 41 41 43 44 45 47 51 56 60 64 67 69 67 62 55 48 41 35 31 28 27 26 26 27 28 28 28 27
45 44 42 42 41 39 37 36 36 38 40 39 41 41 40 40 41 42 43 44 46 50 54 58 61 63 64 59 52 45 38 32 27 24 22 21 22 23 24 25 26 26 26 26
48 46 44 45 43 40 37 37 37 39 39 39 40 40 40 40 41 41 42 44 48 52 56 59 60 58 52 44 37 30 26 22 20 19 19 20 22 23 24 26 28 28 28 27
46 44 43 47 40 38 37 37 37 38 37 38 39 39 40 40 39 39 41 46 50 54 56 57 53 46 38 30 23 20 18 18 18 19 21 23 24 26 28 29 29 29 28 27
40 39 42 40 36 35 35 36 36 36 36 37 37 37 38 36 36 39 43 47 51 54 53 48 40 31 22 17 16 16 16 18 20 22 24 26 28 29 29 30 30 30 29 28
34 34 36 35 33 34 35 36 34 34 34 34 34 34 35 33 36 40 44 48 51 49 42 34 25 17 13 13 13 15 17 20 22 25 27 29 30 31 32 33 32 31 30 28
35 34 35 33 32 33 34 34 32 32 32 31 30 30 31 33 37 41 45 47 44 37 28 20 13 10 9 10 12 15 18 21 24 27 29 32 34 34 35 34 33 32 30 28
36 34 33 30 30 31 31 31 30 29 28 27 26 27 30 34 38 42 44 40 33 24 16 9 6 5 7 10 14 17 20 23 26 29 32 35 36 35 34 33 31 30 28 25
33 31 29 28 28 28 28 28 27 25 24 23 24 27 30 35 39 41 37 28 19 11 4 1 4 6 9 12 15 19 22 25 29 32 35 38 38 36 34 32 30 28 25 23
26 26 26 26 26 26 26 25 24 23 22 22 24 28 32 36 37 33 24 15 7 2 4 7 8 9 11 14 17 20 23 27 31 35 38 40 40 38 35 32 30 27 25 22
25 26 27 27 26 25 25 24 22 21 21 23 26 30 33 34 30 21 12 5 5 9 11 10 9 10 13 15 17 20 24 28 32 36 39 40 40 39 36 32 30 28 26 23
27 28 28 28 27 25 23 21 20 20 22 25 27 30 31 28 19 10 6 9 13 14 13 11 10 11 13 15 17 20 24 28 32 35 38 40 40 39 36 33 31 30 28 26
28 28 27 26 24 22 20 19 20 22 24 26 27 28 26 17 9 8 12 16 17 15 13 11 11 12 13 14 17 21 25 28 32 35 37 38 39 39 38 35 33 32 30 28
26 25 24 22 20 19 19 20 22 23 24 26 26 24 16 9 10 15 19 20 18 15 13 11 11 11 12 14 18 22 25 28 31 34 36 38 38 38 38 37 35 34 31 28
22 21 19 18 18 19 20 21 22 24 25 25 22 16 10 13 18 22 22 20 17 15 13 11 10 10 12 15 19 23 26 29 32 34 36 38 38 39 39 38 36 34 31 28
17 17 17 18 19 20 21 22 24 25 24 21 16 12 16 20 24 25 22 19 17 15 12 10 10 11 13 17 20 24 27 30 33 35 37 38 39 39 39 39 37 35 31 28
16 17 18 19 20 21 22 23 24 23 20 16 15 19 23 26 27 24 22 19 17 14 11 10 9 11 14 18 21 25 28 32 35 37 38 39 39 40 40 40 39 37 34 30
18 18 19 20 21 22 22 22 21 19 17 17 21 26 29 30 28 25 22 19 16 13 10 9 10 12 15 19 22 26 30 34 37 38 39 39 40 40 41 41 41 39 36 32
18 18 19 20 20 21 21 20 18 17 19 23 28 31 33 31 28 25 22 19 15 12 10 9 10 13 16 20 23 27 31 34 37 39 40 40 40 40 41 41 42 40 38 35
17 18 18 18 18 18 18 17 18 20 24 29 33 36 34 31 28 25 22 18 15 11 9 9 11 14 17 20 24 27 31 34 37 39 39 40 40 40 41 42 42 42 39 36
17 17 17 17 17 17 17 18 20 24 29 34 38 38 35 31 28 25 22 18 14 11 9 10 12 14 17 20 24 27 30 33 36 38 39 40 40 40 41 41 42 43 41 38
17 17 17 18 18 18 18 20 24 29 34 39 41 38 35 31 28 25 21 18 14 12 10 10 12 14 17 21 24 27 30 33 36 37 38 39 39 40 40 41 42 43 43 41
18 18 18 18 19 20 21 24 28 34 39 43 42 38 35 31 28 25 22 18 15 12 10 10 12 14 18 22 25 28 30 33 35 36 37 38 39 39 39 39 41 42 43 43
17 18 19 19 20 22 24 27 33 40 44 45 41 38 34 31 28 25 21 18 15 12 10 10 12 15 19 23 26 28 30 32 34 35 36 37 37 37 37 37 39 41 42 43
15 18 19 20 22 25 28 32 39 45 47 45 41 38 34 31 28 25 21 18 15 12 10 10 12 15 20 24 27 29 31 32 33 34 35 36 36 35 34 35 37 39 40 41
16 18 19 21 25 29 33 38 44 48 48 44 41 37 34 31 28 25 21 18 15 12 9 9 12 16 20 24 28 31 33 34 33 33 33 34 35 34 33 33 34 36 38 39
18 19 21 24 29 33 38 44 48 49 47 44 40 37 34 31 28 25 21 18 14 11 9 9 12 16 20 24 28 32 34 35 35 34 33 33 33 33 32 33 33 34 35 36
Wind_Direction
244 244 249 257 259 260 260 258 261 268 275 280 285 290 294 295 296 297 298 300 301 301 302 302 302 304 305 306 307 307 307 307 307 307 306 305 305 308 312 315 318 319 320 321
244 247 250 254 258 259 261 264 266 270 275 281 285 289 292 293 295 296 297 298 299 300 301 302 305 307 308 309 310 312 314 315 316 316 316 316 317 319 320 321 321 321 321 320
243 246 250 252 254 258 262 265 268 271 276 281 284 287 290 292 293 294 295 297 298 300 302 304 307 309 311 313 315 318 323 327 330 331 330 328 326 324 323 320 318 316 315 313
242 244 245 251 255 258 261 263 266 271 275 279 284 287 290 291 292 293 294 296 298 301 304 307 310 312 314 318 324 330 336 341 343 342 338 335 332 328 324 322 320 318 316 313
240 243 248 252 254 256 258 261 265 270 275 280 285 287 289 291 289 291 293 297 300 304 307 310 312 316 321 329 336 342 347 349 348 345 342 338 336 333 331 327 324 321 318 315
238 241 247 250 253 255 258 262 267 271 276 281 284 283 287 288 288 292 296 300 304 307 309 311 315 321 331 340 347 353 356 356 353 350 348 345 342 338 333 329 325 322 318 314
240 242 247 251 252 255 258 263 267 270 275 278 278 278 283 286 291 296 300 304 307 309 310 313 319 332 350 3 6 7 5 3 0 358 354 350 346 341 337 334 331 328 325 321
240 243 247 249 251 253 258 262 265 269 272 272 273 276 282 289 295 299 303 307 308 308 309 317 337 14 28 23 20 17 15 12 8 3 360 357 353 349 346 344 341 338 335 331
238 241 245 247 252 255 259 262 263 264 264 266 271 280 288 293 299 304 307 307 305 304 305 26 79 65 45 35 30 25 21 16 11 8 5 3 360 357 354 352 349 347 344 340
242 242 246 250 253 256 257 257 257 255 257 265 277 286 292 297 303 306 304 299 290 212 137 120 98 69 52 43 34 26 20 15 12 9 8 6 4 0 358 356 354 352 350 346
244 244 245 247 250 251 251 249 246 250 261 273 282 288 294 301 304 301 290 256 165 144 134 117 92 69 54 42 31 23 18 14 11 9 8 7 6 3 360 358 357 354 351 347
243 242 241 243 245 244 240 238 246 258 269 277 283 291 298 302 297 277 216 162 148 141 130 110 87 67 50 36 26 19 15 12 9 8 7 7 7 5 3 360 358 356 354 351
238 236 235 236 233 229 231 243 255 264 271 278 287 295 298 293 262 197 163 151 145 139 124 104 82 60 43 29 21 16 13 10 7 6 6 7 7 7 5 3 1 359 358 356
228 225 221 218 219 228 241 253 261 268 274 282 290 293 286 245 186 162 153 147 143 134 117 97 76 54 35 22 16 13 10 7 5 5 6 7 8 8 7 6 3 1 1 3
210 207 208 216 229 241 251 260 266 271 277 284 286 276 232 185 165 155 150 146 139 128 111 92 68 44 25 16 12 10 7 6 6 6 7 8 9 9 9 9 8 7 6 6
200 210 222 234 244 252 258 263 268 272 276 277 264 224 187 170 160 154 150 145 136 123 106 85 58 33 20 14 11 10 9 9 10 10 11 12 12 12 11 11 11 11 11 11
218 227 236 244 251 256 261 264 268 269 266 252 217 188 173 164 158 153 149 142 132 118 100 76 48 29 20 17 15 14 14 14 14 14 14 15 15 15 14 14 14 14 15 16
230 237 243 250 255 259 261 262 260 254 239 211 189 175 167 161 156 153 148 140 130 117 96 69 43 30 25 22 19 17 17 17 17 16 16 16 17 18 17 17 18 18 18 19
237 242 247 250 253 254 254 252 243 227 205 188 178 169 163 159 155 152 147 141 131 117 95 66 46 37 30 24 19 17 18 19 19 18 18 19 20 21 20 20 21 22 23 24
238 241 243 244 244 243 241 233 217 200 187 179 170 164 161 157 154 151 148 142 131 116 94 70 52 40 30 23 18 18 19 20 20 19 19 21 22 22 23 24 25 26 27 29
230 232 233 231 232 232 226 213 199 187 179 172 166 162 159 156 154 152 149 144 133 118 98 73 54 41 31 23 20 20 21 21 20 20 21 22 24 24 25 27 28 30 32 34
225 226 227 226 226 223 214 201 190 180 173 167 163 161 158 156 155 153 150 144 133 119 99 75 55 41 30 24 22 21 21 20 20 21 22 23 25 27 28 30 32 34 35 38
228 227 226 223 219 213 204 193 184 175 169 164 162 160 158 157 156 154 151 144 134 121 102 77 56 40 29 25 24 22 21 22 22 22 23 25 27 29 31 33 35 37 38 40
229 224 221 216 210 202 194 186 177 170 165 162 161 159 158 157 157 155 150 143 135 124 104 78 55 38 29 27 26 25 25 25 25 25 26 26 28 31 33 35 37 39 40 41
219 213 210 206 198 191 185 178 171 166 163 162 161 160 159 158 157 155 150 143 136 124 103 76 54 37 30 31 30 30 30 29 29 29 29 28 30 32 34 36 38 39 40 41
211 206 200 194 187 182 176 171 167 164 163 162 161 161 160 160 159 155 150 144 137 124 101 72 50 37 34 34 33 33 33 32 31 31 30 30 31 33 34 37 38 38 38 38
205 197 191 184 179 174 170 167 165 164 163 162 162 162 161 161 160 156 151 145 136 121 97 67 48 40 36 34 33 33 33 32 31 30 30 31 32 32 33 35 35 35 35 36